#timestamp,LO_Frequency,Hit,StdDev 
1658509215.5,286047000.4,N
1658509235.3,286046999.3,N
1658509255.1,286047001.0,N
1658509275.9,286046999.1,N
1658509295.7,286047001.2,N
1658509315.6,286046998.5,N
1658509335.4,286046999.3,N
1658509355.2,286046999.0,N
1658509375.1,286047000.9,N
1658509376.0,286047000.9,N
1658509395.8,286047000.6,N
1658509415.6,286047011.9,Y
1658509435.5,286046999.8,P
1658509455.3,286047000.2,N
1658509475.2,286047002.0,P
1658509495.9,286047004.4,Y
1658509515.7,286047000.4,P
1658509535.6,286047000.2,P
1658509555.4,286047000.7,P
1658509575.3,286047001.2,Y
1658509595.1,286047000.5,P
1658509596.0,286047000.5,P
1658509615.8,286047000.2,P
1658509635.7,286046999.9,N
1658509655.5,286047001.2,Y
1658509675.3,286047000.1,P
1658509695.2,286046999.7,P
1658509715.0,286047002.6,P
1658509715.9,286047002.6,N
1658509735.8,286047003.6,N
1658509755.6,286047003.6,N
1658509775.4,286047004.2,N
1658509795.3,286047003.4,N
1658509815.1,286047003.6,N
1658509835.9,286047003.9,N
1658509855.7,286047001.9,N
1658509875.5,286047004.0,N
1658509895.4,286047004.3,N
1658509915.2,286047002.2,N
1658509935.0,286047001.6,N
1658509935.9,286047001.6,N
1658509955.8,286047003.7,N
1658509975.6,286047003.7,N
1658509995.5,286047004.1,N
1658510015.3,286047004.3,Y
1658510035.1,286047000.0,P
1658510055.9,286047000.3,N
1658510075.7,286047000.4,N
1658510095.5,286046998.3,N
1658510115.4,286047000.7,N
1658510135.2,286046999.3,N
1658510155.1,286046996.5,N
1658510156.0,286046996.5,N
1658510175.8,286046998.3,N
1658510195.6,286047001.0,N
1658510215.5,286046998.6,N
1658510235.3,286047001.1,N
1658510255.1,286046997.1,N
1658510275.9,286046995.9,N
1658510295.7,286046997.5,N
1658510315.6,286046997.9,N
1658510335.4,286046997.3,N
1658510355.2,286046994.9,N
1658510375.1,286046997.2,N
1658510376.0,286046997.2,N
1658510395.8,286046996.5,N
1658510415.6,286046998.5,N
1658510435.5,286047000.7,N
1658510455.3,286047000.9,N
1658510475.2,286047000.6,N
1658510495.9,286047000.3,N
1658510515.7,286046998.7,N
1658510535.6,286047000.7,N
1658510555.4,286047002.8,N
1658510575.2,286046997.8,N
1658510595.1,286046997.5,N
1658510596.0,286046997.5,N
1658510615.8,286046997.2,N
1658510635.7,286046997.2,N
1658510655.5,286046996.8,N
1658510675.3,286046998.4,N
1658510695.2,286046998.1,N
1658510715.0,286046999.4,N
1658510715.9,286046999.4,N
1658510735.7,286047001.1,N
1658510755.6,286046994.9,N
1658510775.4,286046994.7,N
1658510795.3,286046994.7,N
1658510815.1,286046998.0,N
1658510835.8,286046999.5,N
1658510855.7,286046995.3,N
1658510875.5,286046993.5,Y
1658510895.4,286046995.6,P
1658510915.2,286046999.0,N
1658510935.0,286046999.1,N
1658510935.9,286046999.1,N
1658510955.8,286046998.2,N
1658510975.6,286046998.5,N
1658510995.4,286046998.6,N
1658511015.3,286047000.6,N
1658511035.1,286047002.1,N
1658511055.9,286047002.6,N
1658511075.7,286047001.6,N
1658511095.5,286047002.3,N
1658511115.4,286046998.5,N
1658511135.2,286046998.6,N
1658511155.0,286046996.9,N
1658511155.9,286046996.9,N
1658511175.8,286046997.0,N
1658511195.6,286046998.0,N
1658511215.5,286046996.9,N
1658511235.3,286046997.7,N
1658511255.1,286046999.6,N
1658511275.9,286046999.6,N
1658511295.7,286046999.4,N
1658511315.5,286046998.9,N
1658511335.4,286046999.5,N
1658511355.2,286047000.4,N
1658511375.1,286047000.6,N
1658511376.0,286047000.6,N
1658511395.8,286047000.7,N
1658511415.6,286046999.3,N
1658511435.5,286046997.7,N
1658511455.3,286046998.6,N
1658511475.1,286046999.6,N
1658511495.9,286046999.6,N
1658511515.7,286046997.0,N
1658511535.6,286046996.7,N
1658511555.4,286046999.3,N
1658511575.2,286046999.6,N
1658511595.1,286046995.1,N
1658511596.0,286046995.1,N
1658511615.8,286046999.5,N
1658511635.7,286046998.1,N
1658511655.5,286047000.1,N
1658511675.3,286046999.2,N
1658511695.2,286046999.1,N
1658511715.0,286046996.6,N
1658511715.9,286046996.6,N
1658511735.7,286046996.4,N
1658511755.6,286046997.3,N
1658511775.4,286046997.7,N
1658511795.3,286046996.9,N
1658511815.1,286046997.4,N
1658511816.0,286046997.4,N
1658511835.8,286046997.8,N
1658511855.7,286046995.2,Y
1658511875.5,286046997.2,P
1658511895.4,286046998.3,P
1658511915.2,286046999.3,N
1658511935.0,286046996.9,Y
1658511935.9,286046996.9,P
1658511955.8,286047001.0,N
1658511975.6,286047001.1,N
1658511995.4,286047000.1,N
1658512015.3,286047002.1,N
1658512035.1,286047002.0,N
1658512055.9,286047001.9,N
1658512075.7,286047001.7,N
1658512095.5,286047003.8,N
1658512115.4,286047003.2,N
1658512135.2,286047003.8,N
1658512155.0,286047003.8,N
1658512156.0,286047003.8,N
1658512175.8,286047001.5,N
1658512195.6,286047004.3,N
1658512215.5,286047003.0,N
1658512235.3,286047003.2,N
1658512255.1,286047003.7,N
1658512275.9,286047005.3,N
1658512295.7,286047005.8,N
1658512315.6,286047007.6,Y
1658512335.4,286047003.5,P
1658512355.2,286047002.9,P
1658512375.1,286047003.9,P
1658512376.0,286047003.9,Y
1658512395.8,286046998.9,P
1658512415.7,286046998.1,N
1658512435.5,286047000.8,N
1658512455.3,286047001.0,N
1658512475.2,286046999.9,N
1658512495.0,286047001.2,N
1658512495.9,286047001.2,N
1658512515.7,286047000.4,N
1658512535.6,286047001.0,N
1658512555.4,286047000.4,N
1658512575.3,286047001.6,N
1658512595.1,286047000.5,N
1658512615.8,286046998.3,N
1658512635.7,286047001.1,N
1658512655.5,286047002.3,N
1658512675.4,286046999.8,N
1658512695.2,286047002.6,N
1658512715.0,286046999.8,N
1658512715.9,286046999.8,N
1658512735.8,286047000.2,N
1658512755.6,286047002.6,N
1658512775.4,286047001.0,N
1658512795.3,286046999.5,N
